Location: Niles Junction
(37.5763°N, 121.9714°W)
Time: 13:02:00
(UTC+00:00)

Uosat 12 SS-18 rocket - Pass Details

Date: 29 October 2020
Orbit: 600 x 1384 km, 64.6° (Epoch: 01 December)

Event Time Altitude Azimuth Distance (km) Brightness Sun altitude
Rises 13:24:06 0° 207° (SSW) 3,247 7.5 -13.7°
Reaches altitude 10° 13:26:39 10° 206° (SSW) 2,220 6.7 -13.2°
Maximum altitude 13:31:35 81° 119° (ESE) 666 4.3 -12.2°
Drops below altitude 10° 13:35:58 10° 33° (NNE) 1,975 7.0 -11.4°
Sets 13:38:07 0° 32° (NNE) 2,859 7.8 -10.9°
